Regional Weather Roundup
Issued by NWS

Home | Current Version | Previous Version | Graphics & Text | Print | Product List | Glossary On
Versions: 1 2 3 4 5 6 7 8 9 10 11 12 13 14 15 16 17 18 19 20 21 22 23 24 25 26 27 28 29 30 31 32 33 34 35 36 37 38 39 40 41 42 43 44 45 46 47 48 49 50
000
ASUS43 KLSX 271459
RWRMO

WEATHER SUMMARY FOR MISSOURI
NATIONAL WEATHER SERVICE SPRINGFIELD MO
1000 AM CDT MON JUL 27 2015

NOTE: "FAIR" INDICATES FEW OR NO CLOUDS BELOW 12,000 FEET WITH NO
       SIGNIFICANT WEATHER AND/OR OBSTRUCTIONS TO VISIBILITY.
       CURRENT SKY AND/OR WEATHER CONDITIONS ARE NOT AVAILABLE FOR
       CHILLICOTHE AND FARMINGTON.

MOZ001>031-035>038-043-044-053-054-271600-
...NORTHERN AND WESTERN MISSOURI...

CITY           SKY/WX    TMP DP  RH WIND       PRES   REMARKS
KANSAS CTY INT PTSUNNY   84  76  76 S6        29.92F HX  93
KANSAS C DTWN  PTSUNNY   88  73  61 SE3       29.90F HX  95
LEE`S SUMMIT   PTSUNNY   84  73  69 S6        29.94F HX  90
ST JOSEPH      PTSUNNY   83  76  79 S6        29.90F HX  91
CHILLICOTHE      N/A     88  77  69 CALM      29.92F HX 100
KIRKSVILLE     MOSUNNY   84  77  79 E9        29.97S HX  94

$$
MOZ066>068-077>081-088>096-101>105-271600-
...SOUTHWEST MISSOURI...

CITY           SKY/WX    TMP DP  RH WIND       PRES   REMARKS
SPRINGFIELD    SUNNY     87  76  69 SW9       29.99F HX  97
JOPLIN         SUNNY     88  73  61 SW15      29.97F HX  95

$$
MOZ032>034-039>042-045>050-055>058-069>072-271600-
...CENTRAL MISSOURI...

CITY           SKY/WX    TMP DP  RH WIND       PRES   REMARKS
COLUMBIA       MOSUNNY   84  76  76 W5        29.97F HX  93
JEFFERSON CITY MOSUNNY   89  77  67 CALM      29.95F HX 101
ROLLA          MOSUNNY   84  77  79 SW6       29.99R HX  94
SEDALIA        PTSUNNY   86  77  74 SW6       29.97F HX  97
OSAGE BEACH    SUNNY     88  75  66 SW5       29.99S HX  97

$$
MOZ051-052-059>065-271600-
...EAST CENTRAL MISSOURI...

CITY           SKY/WX    TMP DP  RH WIND       PRES   REMARKS
ST LOUIS INTL  PTSUNNY   87  76  69 N5        29.97S HX  97
SPIRIT OF STL  PTSUNNY   87  79  76 W3        29.95S HX 101
ST CHARLES     PTSUNNY   85  78  80 SW3       29.95S HX  96

$$
MOZ072>076-082>087-097>100-106>115-271600-
...SOUTH CENTRAL AND SOUTHEAST MISSOURI...

CITY           SKY/WX    TMP DP  RH WIND       PRES   REMARKS
CAPE GIRARDEAU MOSUNNY   84  79  85 SE5       29.98S HX  96
FARMINGTON     SUNNY     86  79  79 W5        30.03S HX  99
POPLAR BLUFF   PTSUNNY   86  78  77 SW5       29.97R HX  98
WEST PLAINS    SUNNY     86  74  67 VRB5      30.02S HX  94

$$


USA.gov is the U.S. government's official web portal to all federal, state and local government web resources and services.